#timestamp,LO_Frequency,Hit,StdDev 
1458604815.6,286046988.8,Y
1458604835.4,286046991.8,P
1458604855.3,286046995.7,N
1458604875.1,286046995.5,N
1458604876.0,286046995.5,N
1458604895.8,286046991.9,Y
1458604915.7,286046997.9,P
1458604935.5,286046995.9,P
1458604955.3,286046993.4,P
1458604975.2,286046997.6,N
1458604995.9,286046996.8,N
1458605015.7,286046997.4,N
1458605035.5,286046997.6,N
1458605055.4,286046997.1,N
1458605075.2,286046997.2,N
1458605095.0,286046997.4,N
1458605095.9,286046997.4,N
1458605115.8,286046995.4,Y
1458605135.6,286047002.3,P
1458605155.4,286047001.2,N
1458605175.3,286047001.1,N
1458605195.1,286047001.7,N
1458605215.8,286047002.8,N
1458605235.7,286047002.8,N
1458605255.5,286046998.6,N
1458605275.3,286046999.0,N
1458605295.2,286046999.2,N
1458605315.9,286046997.1,N
1458605335.7,286046996.6,N
1458605355.6,286046995.1,N
1458605375.4,286046996.7,N
1458605395.2,286046998.0,N
1458605415.0,286046993.5,N
1458605416.0,286046993.5,N
1458605435.8,286046993.6,N
1458605455.6,286046996.2,N
1458605475.4,286046996.3,N
1458605495.3,286046994.0,N
1458605515.1,286046992.8,N
1458605535.8,286046991.2,N
1458605555.7,286046990.5,N
1458605575.5,286046992.8,N
1458605595.3,286046994.0,N
1458605615.2,286046995.3,N
1458605635.9,286046994.3,N
1458605655.7,286046995.2,N
1458605675.6,286046996.0,N
1458605695.4,286046996.0,N
1458605715.2,286046996.5,N
1458605735.0,286046995.4,N
1458605735.9,286046995.4,N
1458605755.8,286046996.8,N
1458605775.6,286046997.2,N
1458605795.4,286047001.2,N
1458605815.3,286046999.7,N
1458605835.1,286046998.2,N
1458605855.8,286046999.0,N
1458605875.7,286047001.1,N
1458605895.5,286047000.9,N
1458605915.3,286046999.0,N
1458605935.2,286047001.0,N
1458605955.9,286047001.5,N
1458605975.7,286047003.8,N
1458605995.6,286047002.5,N
1458606015.4,286047000.9,N
1458606035.2,286047002.4,N
1458606055.1,286047002.8,N
1458606056.0,286047002.8,N
1458606075.8,286047000.4,N
1458606095.6,286047000.2,N
1458606115.4,286046998.5,N
1458606135.3,286046999.9,N
1458606155.1,286047003.7,N
1458606175.8,286047003.5,N
1458606195.7,286047005.3,N
1458606215.5,286047005.1,N
1458606235.3,286047004.8,N
1458606255.2,286047006.2,N
1458606275.9,286047010.8,Y
1458606295.7,286047008.4,P
1458606315.6,286047012.3,P
1458606335.4,286047009.9,N
1458606355.2,286047012.5,N
1458606375.1,286047016.8,Y
1458606376.0,286047016.8,P
1458606395.8,286047007.1,N
1458606415.6,286047005.5,N
1458606435.5,286047006.6,N
1458606455.3,286047005.7,N
1458606475.1,286047005.0,N
1458606495.9,286047009.1,N
1458606515.7,286047009.2,N
1458606535.5,286047005.9,N
1458606555.4,286047007.2,N
1458606575.2,286047008.8,N
1458606595.0,286047007.0,N
1458606595.9,286047007.0,N
1458606615.8,286047008.2,N
1458606635.6,286047010.8,Y
1458606655.4,286047006.0,P
1458606675.3,286047005.0,P
1458606695.1,286047007.6,P
1458606696.0,286047007.6,Y
1458606715.8,286046999.5,P
1458606735.7,286047003.8,N
1458606755.5,286047000.2,N
1458606775.3,286047000.6,N
1458606795.2,286047002.2,N
1458606815.9,286047001.6,N
1458606835.7,286047002.7,N
1458606855.5,286047002.0,N
1458606875.4,286047003.8,N
1458606895.2,286047004.6,N
1458606915.0,286046998.5,N
1458606915.9,286046998.5,N
1458606935.8,286046996.6,N
1458606955.6,286046995.7,N
1458606975.4,286046999.2,N
1458606995.3,286046998.4,N
1458607015.1,286046999.1,N
1458607016.0,286046999.1,N
1458607035.8,286046997.8,N
1458607055.7,286046997.2,N
1458607075.5,286046997.6,N
1458607095.3,286046998.4,N
1458607115.2,286046999.6,N
1458607135.9,286047000.0,N
1458607155.7,286046998.4,N
1458607175.5,286047002.2,N
1458607195.4,286047002.9,N
1458607215.2,286047003.0,N
1458607235.0,286047001.4,N
1458607235.9,286047001.4,N
1458607255.8,286047001.8,N
1458607275.6,286047004.0,N
1458607295.4,286047003.0,N
1458607315.3,286047002.2,N
1458607335.1,286047002.0,N
1458607355.8,286047003.3,N
1458607375.7,286047008.8,Y
1458607395.5,286047007.3,P
1458607415.3,286047009.1,N
1458607435.2,286047006.3,N
1458607455.9,286047007.3,N
1458607475.7,286047009.2,Y
1458607495.6,286047003.5,P
1458607515.4,286047002.0,N
1458607535.2,286047003.8,N
1458607555.1,286047006.0,Y
1458607556.0,286047006.0,P
1458607575.8,286046997.3,N
1458607595.6,286046995.5,N
1458607615.5,286046993.3,N
1458607635.3,286046995.1,N
1458607655.1,286046999.5,N
1458607675.9,286046996.4,N
1458607695.7,286046996.3,N
1458607715.5,286046992.3,N
1458607735.4,286046993.1,N
1458607755.2,286046993.4,N
1458607775.0,286046994.4,N
1458607775.9,286046994.4,N
1458607795.7,286046995.9,N
1458607815.6,286046994.4,N
1458607835.4,286046996.3,N
1458607855.2,286046997.5,N
1458607875.1,286046995.4,N
1458607876.0,286046995.4,N
1458607895.8,286046993.5,N
1458607915.6,286046993.7,N
1458607935.5,286046993.6,N
1458607955.3,286046995.4,N
1458607975.1,286046997.8,N
1458607995.9,286046996.0,N
1458608015.7,286046992.9,N
1458608035.5,286046993.2,N
1458608055.4,286046995.2,N
1458608075.2,286046990.2,Y
1458608095.0,286046996.3,P
1458608095.9,286046996.3,P
1458608115.8,286046995.6,P
1458608135.6,286046994.9,Y
1458608155.4,286047002.8,P
1458608175.3,286047001.0,N
1458608195.1,286047000.7,N
1458608196.0,286047000.7,N
1458608215.8,286046999.0,N
1458608235.7,286046997.1,N
1458608255.5,286046995.5,N
1458608275.3,286046999.1,N
1458608295.1,286046998.0,N
1458608315.9,286046996.9,N
1458608335.7,286046997.8,N
1458608355.5,286046993.4,Y
1458608375.4,286046997.7,P
1458608395.2,286046996.4,P
